User: anonymous   Login
Location: Unspecified
(0.0000°N, 0.0000°E)
Time: 00:13:35
(UTC+00:00)
Language:

TBA - TO BE ASSIGNED - Orbit

View from above orbital plane
View from above orbital plane
View from above satellite
View from above satellite

Ground track
Ground track

The orbit is defined by the following mean orbital elements,

1 67953U          26145.62520014 +.00000000 +00000-0 +48895-3 0 00008
2 67953  43.0017 116.5330 0001603 266.7086  93.3583 15.27571463    03
Epoch (UTC): 25 May 2026 15:00:17
Eccentricity: 0.0001603
inclination: 43.0017°
perigee height: 482 km
apogee height: 484 km
right ascension of ascending node: 116.5330°
argument of perigee: 266.7086°
revolutions per day: 15.27571463
mean anomaly at epoch: 93.3583°

The dashed part of the orbit path shows where the satellite is in the earth's shadow,  

DLR